Retour au catalogue

SMAP

ActifScienceSSO
NORAD 40376·PAYLOAD·🇺🇸 United States

Lancé Jan 31, 2015 depuis Vandenberg Space Force Base

Loading…

Prochains Passages (prochaines 24 heures)

TLE

FraisSource: Space-Track

Époque: Sep 14, 2026, 14:01 UTC

1 40376U 15003A   26257.58432821  .00000271  00000-0  61456-4 0  9990
2 40376  98.1315 263.4276 0001446  91.1743 268.9625 14.63370458620691

Suivez SMAP en temps réel avec AllMySat

Download on the App Store